Weather in Pochtovoye

Russia / Arkhangel'skaya Oblast'     63°09′27″N   42°01′02″E
temp.,
°C
wind,
m/s
gust,
m/s
humid.,
%
clouds,
%
prec.,
mm/h
press.,
hPa
HPBL,
m
18 may, tue
tue1800:00+13se3978100 0.0 1018226
03:00+11se3108584 0.0 1019248
06:00+13se4117697 0.0 1019349
09:00+19se585566 0.0 1018774
12:00+22sse5847100 0.0 10171155
15:00+24sse594497 0.0 10161299
18:00+24sse5104922 0.0 10141307
21:00+20se514655 0.0 1014523
19 may, wed
wed1900:00+17sse4158196 0.0 1013421
03:00+16sse4129227 0.0 1014285
06:00+18sse41083100 0.0 1013317
09:00+23sse486280 0.0 1013696
12:00+28s59377 0.0 10121687
15:00+30ssw58275 0.0 10122399
18:00+29s37335 0.0 10111258
21:00+23sse413510 0.0 1012392
20 may, thu
thu2000:00+20sse414630 0.0 1012466
03:00+17sse412780 0.0 1012357
06:00+19sse411699 0.0 1011404
09:00+24s585211 0.0 1011798
12:00+29s69380 0.0 10091696
15:00+30s69265 0.0 10093180
18:00+29s48335 0.0 10072332
21:00+24sse614410 0.0 1008782
21 may, fri
fri2100:00+20sse413570 0.0 1007506
03:00+17sse41169100 0.0 1007356
06:00+19sse411680 0.0 1006578
09:00+23s595030 0.0 10051388
12:00+24sse5947100 0.0 10032382
15:00+21s6115930 1.0 10021344
18:00+20s51065100 0.8 10011281
21:00+16s5118293 2.2 999623
22 may, sat
sat2200:00+15ssw3888100 4.9 999434
03:00+12sw51089100 7.1 1001738
06:00+10sw51186100 0.4 1002941
09:00+12wsw6127386 0.6 10041465
12:00+14wsw61159100 0.4 10071781
15:00+17wsw6115052 0.7 10092010
18:00+16wsw6105620 0.4 10111753
21:00+13wsw4106521 0.6 1013473